[[{"header":{"parameterUnit":"m.s-1","parameterCategory":1,"la1":30.2991,"la2":30.254,"lo1":-89.0895,"lo2":-89.0444,"dy":0.0017,"dx":0.0017,"nx":28,"ny":28,"refTime":"2025-04-26T09:00:00:Z","depth":0,"parameterNumber":2,"parameterNumberName":"U-component_of_WINDS"},"data":[0,0,0,0,0,0,0,0,0,0,0,0,0,0,0,0,0,0,0,0,0,0,0,0,0,0,0,0,0,0,0,0,0,0,0,0,0,0,0,0,0,0,0,0,0,0,0,0,0,0,0,0,0,0,0,0,0,0,2.8103,2.8103,0,2.8153,2.8154,2.8154,2.8105,2.8103,2.8101,2.8099,2.8148,2.8151,2.8154,0,0,0,0,0,0,0,0,0,0,0,0,0,2.796,2.7963,2.8102,2.8103,2.8104,2.8153,2.8154,2.8154,2.8105,2.8103,2.8101,2.8098,2.8147,2.815,2.8154,0,0,0,0,0,0,0,0,0,0,0,0,0,2.8017,2.7964,2.8102,2.8085,2.8084,2.8153,2.8154,2.8155,2.8106,2.8103,2.81,2.8097,2.8146,2.815,2.8155,2.8241,0,0,2.8169,2.8171,0,0,0,0,0,0,0,0,2.8014,2.8022,2.8087,2.8087,2.8086,2.812,2.8121,2.8184,2.8107,2.8098,2.8099,2.8096,2.8141,2.8145,2.8161,2.8244,2.8246,2.8169,2.8172,2.8174,2.8175,0,0,0,0,0,0,0,2.801,2.802,2.8122,2.8088,2.8087,2.8074,2.8079,2.8133,2.8135,2.8098,2.8095,2.8102,2.814,2.8157,2.8162,2.8246,2.8169,2.8173,2.8176,2.8178,2.84,2.8403,0,0,0,0,0,0,2.8008,2.8017,2.8121,2.8124,2.8042,2.8079,2.8084,2.8112,2.8134,2.8135,2.8104,2.8099,2.815,2.8157,2.8164,2.8264,2.8174,2.8178,2.8181,2.8396,2.84,2.8404,0,0,0,0,0,0,2.8006,2.8018,2.8119,2.807,2.8081,2.8084,2.8116,2.8114,2.8131,2.8138,2.8138,2.8121,2.8148,2.8157,2.8222,2.8265,2.818,2.8185,2.8393,2.8398,2.8402,2.8466,0,0,0,0,0,0,2.8002,2.8018,2.8051,2.8071,2.8084,2.8178,2.8118,2.8117,2.814,2.8134,2.8155,2.8155,2.8147,2.8215,2.8227,2.827,2.8188,2.8389,2.8395,2.84,2.846,2.8473,2.8483,0,0,0,0,0,2.7997,2.8067,2.8053,2.8066,2.8127,2.818,2.8188,2.8177,2.8144,2.8177,2.8181,2.8155,2.8259,2.8222,2.8235,2.828,2.8386,2.8393,2.84,2.8455,2.847,2.8483,0,0,0,0,0,0,2.8052,2.807,2.8054,2.8133,2.8156,2.8172,2.8213,2.8194,2.8225,2.8218,2.8203,2.8208,2.8276,2.8285,2.8244,2.8363,2.8317,2.8327,2.8355,2.8369,2.838,2.8375,2.8192,0,0,0,0,0,2.8073,2.8117,2.8129,2.8198,2.821,2.821,2.8233,2.8223,2.8245,2.8254,2.8263,2.8284,2.8322,2.8346,2.8382,2.8463,2.8465,2.85,2.8511,2.8521,2.8528,2.8568,2.8583,2.8427,2.8426,2.8426,0,0,2.8118,2.8133,2.8161,2.8209,2.8225,2.8268,2.8218,2.8267,2.8297,2.8261,2.8322,2.833,2.8353,2.8425,2.8458,2.8434,2.8572,2.8529,2.8537,2.8539,2.8577,2.8592,2.8605,2.8431,2.843,2.843,0,0,2.822,2.8237,2.8295,2.8312,2.8337,2.8337,2.8351,2.837,2.8374,2.8436,2.8408,2.8445,2.8511,2.8527,2.8544,2.8653,2.8628,2.8665,2.8723,2.8762,2.8775,2.8785,2.8821,2.8834,2.8673,2.8673,2.8673,0,2.8271,2.8336,2.8326,2.8376,2.8397,2.8368,2.8424,2.8442,2.8477,2.8491,2.8466,2.8546,2.856,2.8634,2.866,2.8677,2.869,2.866,2.8774,2.8785,2.8795,2.8828,2.8842,2.8677,2.8677,2.8676,2.8676,0,2.8396,2.8442,2.8485,2.852,2.8546,2.86,2.8596,2.8624,2.8613,2.8615,2.8676,2.8692,2.8728,2.8746,2.8735,2.8819,2.8803,2.8777,2.8728,2.8814,2.8844,2.8857,2.8683,2.8681,2.868,2.8679,0,0,2.8531,2.8561,2.8576,2.8591,2.8617,2.8651,2.8703,2.874,2.8762,2.8788,2.8828,2.8885,2.886,2.8879,2.887,2.8906,2.8986,2.8874,2.8874,2.8891,2.9075,2.9092,2.9107,2.8972,2.8975,2.8977,2.9072,0,2.8631,2.872,2.8713,2.8797,2.8837,2.8811,2.8855,2.8875,2.8879,2.8912,2.8916,2.8954,2.892,2.8931,2.8966,2.8969,2.9022,2.8963,2.9006,2.9008,2.8997,2.9124,2.9143,2.9232,2.9084,2.9086,2.9088,0,2.8758,2.8789,2.8877,2.8895,2.8912,2.8952,2.8984,2.9018,2.9039,2.9039,2.9061,2.9046,2.9096,2.905,2.9117,2.9076,2.9094,2.9099,2.9102,2.9102,2.905,2.9124,2.9261,2.9272,2.9108,2.9106,2.9105,0,2.8843,2.8906,2.8966,2.8981,2.9005,2.9033,2.9044,2.9064,2.9085,2.9114,2.9127,2.9161,2.9178,2.9204,2.9197,2.9165,2.9264,2.9219,2.9263,2.9263,2.9281,2.9279,2.9419,2.93,2.93,2.93,2.9299,0,2.8952,2.9006,2.9005,2.9041,2.91,2.9092,2.915,2.9158,2.9175,2.9211,2.9192,2.9226,2.9217,2.925,2.9246,2.93,2.9309,2.9308,2.9305,2.9308,2.9307,2.9316,2.9308,2.9303,2.9302,2.9302,2.9301,0,2.9055,2.9057,2.912,2.9138,2.9144,2.9187,2.9201,2.9235,2.9238,2.9284,2.9294,2.9297,2.9335,2.9333,2.9376,2.9373,2.9438,2.943,2.9431,2.9427,2.947,2.9465,2.9616,2.9634,2.9508,2.9509,2.951,0,2.9123,2.9164,2.9187,2.921,2.9223,2.9261,2.9284,2.9277,2.9301,2.9329,2.9358,2.9395,2.9424,2.9486,2.9491,2.9523,2.9514,2.9565,2.9518,2.9518,2.9509,2.9505,2.9508,2.9572,2.9574,2.9575,2.9576,0,2.9241,2.924,2.9274,2.9308,2.9335,2.9361,2.9385,2.9405,2.9401,2.9429,2.9468,2.949,2.9535,2.957,2.9601,2.9611,2.9591,2.9591,2.9602,2.9603,2.96,2.9598,2.9451,2.9587,2.9586,2.9585,2.9584,2.9584,2.9326,2.936,2.9381,2.9419,2.9436,2.9459,2.9491,2.9498,2.9531,2.9566,2.9561,2.9604,2.9624,2.9663,2.9677,2.9709,2.969,2.9707,2.9711,2.9714,2.9717,2.9598,2.9715,2.9715,2.9714,2.9714,2.9714,0,2.944,2.9453,2.9488,2.9522,2.9551,2.9534,2.9559,2.9584,2.9622,2.9643,2.9672,2.9716,2.975,2.9759,2.9791,2.9815,2.9807,2.9824,2.982,2.9822,2.9734,2.9719,2.983,2.983,2.983,2.983,2.983,2.983,2.9502,2.9558,2.956,2.9623,2.9635,2.9678,2.9694,2.9714,2.973,2.978,2.9809,2.9815,2.983,2.9864,2.9894,2.9895,2.9906,2.9925,2.9923,2.984,2.9828,2.9817,2.9803,2.9929,2.9929,3.0007,3.0008,3.0009]},{"header":{"parameterUnit":"m.s-1","parameterCategory":1,"la1":30.2991,"la2":30.254,"lo1":-89.0895,"lo2":-89.0444,"dy":0.0017,"dx":0.0017,"nx":28,"ny":28,"refTime":"2025-04-26T09:00:00:Z","depth":0,"parameterNumber":3,"parameterNumberName":"V-component_of_WINDS"},"data":[0,0,0,0,0,0,0,0,0,0,0,0,0,0,0,0,0,0,0,0,0,0,0,0,0,0,0,0,0,0,0,0,0,0,0,0,0,0,0,0,0,0,0,0,0,0,0,0,0,0,0,0,0,0,0,0,0,0,1.6214,1.6215,0,1.6305,1.6306,1.6307,1.6326,1.6326,1.6325,1.6324,1.6416,1.6419,1.6422,0,0,0,0,0,0,0,0,0,0,0,0,0,1.6053,1.6055,1.6214,1.6215,1.6216,1.6305,1.6306,1.6308,1.6327,1.6326,1.6325,1.6324,1.6415,1.6418,1.6422,0,0,0,0,0,0,0,0,0,0,0,0,0,1.6131,1.6056,1.6214,1.6236,1.6239,1.6305,1.6307,1.6308,1.6327,1.6326,1.6325,1.6324,1.6413,1.6418,1.6422,1.6471,0,0,1.6436,1.6438,0,0,0,0,0,0,0,0,1.6127,1.6137,1.6232,1.6235,1.6238,1.6304,1.6283,1.6363,1.6327,1.6293,1.6324,1.6323,1.6379,1.6386,1.6406,1.6475,1.6479,1.6437,1.644,1.6442,1.6443,0,0,0,0,0,0,0,1.6121,1.6133,1.625,1.6233,1.6237,1.6241,1.6251,1.6298,1.6341,1.6296,1.6298,1.6309,1.6381,1.6401,1.6408,1.6481,1.6437,1.6441,1.6444,1.6445,1.6594,1.6595,0,0,0,0,0,0,1.6112,1.6129,1.6247,1.6253,1.6179,1.6245,1.6256,1.6284,1.634,1.6348,1.6309,1.6309,1.6394,1.6403,1.6411,1.6471,1.6442,1.6446,1.6449,1.6592,1.6594,1.6595,0,0,0,0,0,0,1.6109,1.6123,1.6243,1.6191,1.6207,1.6249,1.6279,1.6286,1.6307,1.635,1.6358,1.6323,1.6393,1.6405,1.6456,1.6475,1.6448,1.6452,1.6591,1.6593,1.6594,1.6592,0,0,0,0,0,0,1.6104,1.6121,1.6141,1.6192,1.621,1.6288,1.6281,1.6288,1.6315,1.6315,1.6365,1.6372,1.6393,1.6449,1.6461,1.648,1.6456,1.659,1.6592,1.6594,1.659,1.6593,1.6596,0,0,0,0,0,1.6098,1.6136,1.6142,1.6156,1.6235,1.6289,1.6299,1.6324,1.6316,1.6336,1.6364,1.637,1.6471,1.6454,1.6467,1.6489,1.6588,1.6591,1.6594,1.6589,1.6593,1.6596,0,0,0,0,0,0,1.6086,1.6143,1.615,1.6206,1.6242,1.6292,1.6317,1.6327,1.6365,1.6364,1.6392,1.6403,1.6452,1.6476,1.6456,1.6538,1.6529,1.6534,1.6521,1.6525,1.6527,1.652,1.646,0,0,0,0,0,1.609,1.613,1.6177,1.6222,1.624,1.6275,1.63,1.6315,1.6354,1.6369,1.6401,1.6437,1.6477,1.6502,1.6541,1.6594,1.6604,1.6615,1.6618,1.662,1.6624,1.6652,1.6657,1.6604,1.6604,1.6604,0,0,1.6099,1.6135,1.6158,1.622,1.625,1.6289,1.6288,1.633,1.6359,1.6375,1.6426,1.645,1.6492,1.6544,1.6569,1.6565,1.6641,1.6623,1.6624,1.6627,1.6655,1.666,1.6665,1.6606,1.6605,1.6605,0,0,1.6134,1.6166,1.6206,1.6236,1.6282,1.6305,1.6314,1.6363,1.6379,1.6431,1.6443,1.6478,1.6546,1.6575,1.6599,1.6644,1.6651,1.6656,1.6669,1.6697,1.6701,1.6705,1.672,1.6725,1.666,1.666,1.666,0,1.6138,1.6199,1.6225,1.6266,1.6293,1.631,1.635,1.6378,1.6433,1.6451,1.6446,1.6531,1.6561,1.6619,1.663,1.665,1.666,1.665,1.6698,1.6702,1.6706,1.6721,1.6727,1.666,1.666,1.666,1.666,0,1.6202,1.6243,1.627,1.6324,1.6353,1.6394,1.6425,1.6452,1.6464,1.6488,1.6539,1.6575,1.6621,1.6636,1.6649,1.6696,1.6692,1.6693,1.6684,1.6711,1.6725,1.6731,1.666,1.666,1.666,1.666,0,0,1.6232,1.63,1.6309,1.6333,1.6384,1.6416,1.6457,1.6502,1.6524,1.6562,1.6595,1.6652,1.6653,1.668,1.6696,1.672,1.6752,1.6717,1.6719,1.6722,1.6804,1.6803,1.6809,1.6757,1.6758,1.6759,1.68,0,1.6273,1.6347,1.6371,1.6432,1.647,1.6486,1.6521,1.6556,1.6578,1.6613,1.6638,1.6677,1.6675,1.6691,1.6716,1.6743,1.6769,1.674,1.6788,1.6789,1.6776,1.6817,1.6816,1.6853,1.6806,1.6807,1.6808,0,1.633,1.6369,1.6434,1.6479,1.6496,1.6527,1.657,1.6604,1.6643,1.6657,1.6687,1.6701,1.6743,1.6732,1.6789,1.6769,1.679,1.6806,1.6808,1.6812,1.6799,1.6822,1.6865,1.6871,1.6817,1.6816,1.6816,0,1.6344,1.6413,1.646,1.648,1.6535,1.6556,1.658,1.6618,1.6643,1.6681,1.6697,1.6739,1.6761,1.6793,1.6817,1.6807,1.6871,1.6863,1.6884,1.6883,1.6896,1.6895,1.6943,1.6911,1.6911,1.691,1.691,0,1.6387,1.6425,1.6467,1.6496,1.6539,1.6567,1.6608,1.6633,1.6666,1.6699,1.6716,1.6746,1.6777,1.6812,1.6831,1.6874,1.6885,1.6897,1.6901,1.6895,1.6893,1.6908,1.6906,1.6912,1.6912,1.6911,1.6911,0,1.641,1.644,1.6492,1.6539,1.6552,1.6582,1.6622,1.665,1.6673,1.6714,1.6726,1.6762,1.6803,1.6831,1.6883,1.6896,1.6943,1.6947,1.693,1.6932,1.695,1.6948,1.7009,1.7018,1.6981,1.6981,1.6981,0,1.6435,1.6465,1.6515,1.6539,1.6563,1.6601,1.6627,1.6654,1.668,1.6727,1.6749,1.6791,1.6826,1.6891,1.6921,1.6961,1.6966,1.6984,1.6972,1.6964,1.6965,1.6962,1.6965,1.6986,1.6986,1.6986,1.6987,0,1.6475,1.6488,1.6525,1.6568,1.6598,1.6633,1.6667,1.6686,1.6719,1.6747,1.679,1.6817,1.6871,1.6912,1.6954,1.6977,1.6987,1.6991,1.6997,1.6991,1.6979,1.6984,1.6934,1.6989,1.6989,1.6988,1.6988,1.6988,1.6499,1.6526,1.6566,1.6606,1.6635,1.6667,1.6695,1.6722,1.6758,1.6804,1.6818,1.6862,1.6899,1.6957,1.6981,1.7015,1.7013,1.7023,1.7025,1.7027,1.7026,1.6974,1.7022,1.7022,1.7022,1.7022,1.7022,0,1.6539,1.6565,1.6603,1.665,1.6682,1.669,1.6728,1.6753,1.6792,1.6826,1.686,1.6908,1.6948,1.6981,1.7022,1.7043,1.7048,1.7052,1.7051,1.7056,1.7026,1.7016,1.7047,1.7047,1.7047,1.7047,1.7047,1.7047,1.6564,1.661,1.6627,1.6687,1.6713,1.6756,1.6777,1.6806,1.6833,1.6886,1.692,1.6941,1.6975,1.7018,1.7054,1.7063,1.7077,1.708,1.7089,1.7061,1.7058,1.7055,1.7045,1.7083,1.7083,1.7116,1.7116,1.7116]}]]